Weather History for KBGF - May, 2013

Change the Weather History Date:

Saturday, May 11, 2013

  Actual Average (KTHA) Record (KTHA)
Temperature  
Mean Temperature 61 °F -  
Max Temperature 71 °F 76 °F 84 °F (2015)
Min Temperature 51 °F 52 °F 48 °F (2013)
Degree Days  
Heating Degree Days 4    
Growing Degree Days 11 (Base 50)    
Moisture  
Dew Point 59 °F    
Average Humidity 84    
Maximum Humidity 100    
Minimum Humidity 60    
Precipitation  
Precipitation 0.00 in - - ()
Sea Level Pressure  
Sea Level Pressure 29.97 in    
Wind  
Wind Speed 4 mph (WNW)    
Max Wind Speed 14 mph    
Max Gust Speed -    
Visibility 10 miles    
Events      
Averages and records for this station are not official NWS values.
T = Trace of Precipitation, MM = Missing Value Source: NWS Daily Summary

Daily Weather History Graph

Daily Weather History Graph

Search for Another Location

Airport or City:

Trip Planner

Search our weather history database for the weather conditions in past years. The results will help you decide how hot, cold, wet, or windy it might be!

Date:

Astronomy

May. 11, 2013 Rise Set
Actual Time 6:43 AM EDT 8:38 PM EDT
Civil Twilight 6:15 AM EDT 9:06 PM EDT
Nautical Twilight 5:41 AM EDT 9:40 PM EDT
Astronomical Twilight 5:05 AM EDT 10:16 PM EDT
Moon 7:51 AM EDT (5/11) 10:16 PM EDT (5/11)
Length of Visible Light 14h 50m
Length of Day
13h 55m
Waxing Crescent, 3% of the Moon is Illuminated
May 11
Waxing Crescent
May 18
First Quarter
May 25
Full
May 31
Last Quarter
Jun 8
New

Hourly Weather History & Observations

Time (EDT) Temp. Dew Point Humidity Pressure Visibility Wind Dir Wind Speed Gust Speed Precip Events Conditions
12:15 AM 62.6 °F 59.0 °F 88% 30.01 in 4.0 mi WNW 3.5 mph - N/A   Mostly Cloudy
12:35 AM 60.8 °F 60.8 °F 100% 30.01 in 5.0 mi Calm Calm - N/A   Overcast
12:55 AM 60.8 °F 60.8 °F 100% 30.00 in 3.0 mi SE 4.6 mph - N/A   Overcast
1:35 AM 60.8 °F 60.8 °F 100% 29.98 in 10.0 mi Calm Calm - N/A   Overcast
1:55 AM 60.8 °F 60.8 °F 100% 29.98 in 10.0 mi Calm Calm - N/A   Overcast
2:15 AM 60.8 °F 60.8 °F 100% 29.97 in 10.0 mi SE 4.6 mph - N/A   Overcast
2:35 AM 60.8 °F 60.8 °F 100% 29.96 in 10.0 mi Calm Calm - N/A   Overcast
2:55 AM 60.8 °F 60.8 °F 100% 29.96 in 10.0 mi Calm Calm - N/A   Overcast
3:15 AM 60.8 °F 60.8 °F 100% 29.95 in 10.0 mi SSE 4.6 mph - N/A   Overcast
3:35 AM 60.8 °F 60.8 °F 100% 29.95 in 10.0 mi SE 4.6 mph - N/A   Overcast
3:55 AM 60.8 °F 60.8 °F 100% 29.95 in 10.0 mi Calm Calm - N/A   Overcast
4:15 AM 60.8 °F 60.8 °F 100% 29.95 in 10.0 mi Calm Calm - N/A   Overcast
4:35 AM 62.6 °F 60.8 °F 94% 29.95 in 10.0 mi Calm Calm - N/A   Overcast
4:55 AM 62.6 °F 60.8 °F 94% 29.95 in 10.0 mi Calm Calm - N/A   Overcast
5:15 AM 60.8 °F 60.8 °F 100% 29.95 in 8.0 mi Calm Calm - N/A   Overcast
5:35 AM 62.6 °F 60.8 °F 94% 29.94 in 10.0 mi Calm Calm - N/A   Overcast
5:55 AM 62.6 °F 60.8 °F 94% 29.94 in 10.0 mi Calm Calm - N/A   Overcast
6:15 AM 62.6 °F 60.8 °F 94% 29.94 in 10.0 mi Calm Calm - N/A   Overcast
6:35 AM 62.6 °F 60.8 °F 94% 29.95 in 10.0 mi West 3.5 mph - N/A   Overcast
6:55 AM 62.6 °F 60.8 °F 94% 29.95 in 10.0 mi West 5.8 mph - N/A   Overcast
7:15 AM 62.6 °F 60.8 °F 94% 29.96 in 10.0 mi WSW 3.5 mph - N/A   Overcast
7:35 AM 62.6 °F 60.8 °F 94% 29.97 in 10.0 mi WSW 4.6 mph - N/A   Overcast
7:55 AM 62.6 °F 60.8 °F 94% 29.97 in 10.0 mi WSW 4.6 mph - N/A   Overcast
8:15 AM 62.6 °F 60.8 °F 94% 29.97 in 10.0 mi Calm Calm - N/A   Overcast
8:35 AM 62.6 °F 62.6 °F 100% 29.97 in 10.0 mi WSW 3.5 mph - N/A   Overcast
8:55 AM 62.6 °F 62.6 °F 100% 29.96 in 10.0 mi SW 3.5 mph - N/A   Mostly Cloudy
9:15 AM 66.2 °F 62.6 °F 88% 29.96 in 10.0 mi SW 4.6 mph - N/A   Scattered Clouds
9:35 AM 66.2 °F 62.6 °F 88% 29.96 in 10.0 mi West 5.8 mph - N/A   Mostly Cloudy
9:55 AM 66.2 °F 62.6 °F 88% 29.97 in 10.0 mi WNW 4.6 mph - N/A   Overcast
10:15 AM 64.4 °F 62.6 °F 94% 29.98 in 10.0 mi WNW 4.6 mph - N/A   Overcast
10:35 AM 64.4 °F 60.8 °F 88% 29.99 in 10.0 mi WNW 4.6 mph - N/A   Overcast
10:55 AM 64.4 °F 60.8 °F 88% 29.98 in 10.0 mi West 4.6 mph - N/A   Mostly Cloudy
11:15 AM 66.2 °F 62.6 °F 88% 29.98 in 10.0 mi WNW 6.9 mph - N/A   Mostly Cloudy
11:35 AM 69.8 °F 62.6 °F 78% 29.98 in 10.0 mi West 5.8 mph - N/A   Scattered Clouds
11:55 AM 66.2 °F 60.8 °F 83% 29.98 in 10.0 mi NNW 6.9 mph - N/A   Overcast
12:15 PM 64.4 °F 60.8 °F 88% 29.99 in 10.0 mi Variable 5.8 mph - N/A   Mostly Cloudy
12:35 PM 66.2 °F 60.8 °F 83% 29.99 in 10.0 mi NW 6.9 mph - N/A   Mostly Cloudy
12:55 PM 68.0 °F 60.8 °F 78% 29.99 in 10.0 mi WNW 8.1 mph - N/A   Mostly Cloudy
1:15 PM 68.0 °F 60.8 °F 78% 29.97 in 10.0 mi North 4.6 mph - N/A   Mostly Cloudy
1:35 PM 69.8 °F 60.8 °F 73% 29.97 in 10.0 mi Variable 5.8 mph - N/A   Mostly Cloudy
1:55 PM 69.8 °F 60.8 °F 73% 29.97 in 10.0 mi WNW 8.1 mph - N/A   Partly Cloudy
2:15 PM 71.6 °F 60.8 °F 69% 29.96 in 10.0 mi WNW 8.1 mph - N/A   Partly Cloudy
2:35 PM 71.6 °F 60.8 °F 69% 29.96 in 10.0 mi WNW 9.2 mph - N/A   Partly Cloudy
2:55 PM 71.6 °F 60.8 °F 69% 29.96 in 10.0 mi West 11.5 mph - N/A   Partly Cloudy
3:15 PM 71.6 °F 60.8 °F 69% 29.96 in 10.0 mi West 9.2 mph - N/A   Partly Cloudy
3:35 PM 71.6 °F 60.8 °F 69% 29.96 in 10.0 mi NW 11.5 mph - N/A   Mostly Cloudy
3:55 PM 69.8 °F 60.8 °F 73% 29.96 in 10.0 mi NW 11.5 mph - N/A   Mostly Cloudy
4:15 PM 69.8 °F 59.0 °F 68% 29.96 in 10.0 mi NW 12.7 mph - N/A   Mostly Cloudy
4:35 PM 71.6 °F 59.0 °F 64% 29.95 in 10.0 mi NW 5.8 mph - N/A   Mostly Cloudy
4:55 PM 69.8 °F 57.2 °F 64% 29.96 in 10.0 mi NW 11.5 mph - N/A   Scattered Clouds
5:15 PM 71.6 °F 59.0 °F 64% 29.95 in 10.0 mi NNW 9.2 mph - N/A   Mostly Cloudy
5:35 PM 69.8 °F 57.2 °F 64% 29.95 in 10.0 mi NW 6.9 mph - N/A   Scattered Clouds
5:55 PM 69.8 °F 57.2 °F 64% 29.95 in 10.0 mi NW 8.1 mph - N/A   Mostly Cloudy
6:15 PM 69.8 °F 57.2 °F 64% 29.95 in 10.0 mi NW 13.8 mph - N/A   Overcast
6:35 PM 69.8 °F 55.4 °F 60% 29.95 in 10.0 mi WNW 10.4 mph - N/A   Overcast
6:55 PM 68.0 °F 55.4 °F 64% 29.95 in 10.0 mi NNW 9.2 mph - N/A   Overcast
7:15 PM 66.2 °F 55.4 °F 68% 29.95 in 10.0 mi NNW 8.1 mph - N/A   Overcast
7:35 PM 66.2 °F 55.4 °F 68% 29.96 in 10.0 mi NNW 9.2 mph - N/A   Overcast
7:55 PM 66.2 °F 53.6 °F 64% 29.97 in 10.0 mi NNW 10.4 mph - N/A   Overcast
8:15 PM 64.4 °F 53.6 °F 68% 29.98 in 10.0 mi NNW 10.4 mph - N/A   Scattered Clouds
8:35 PM 62.6 °F 53.6 °F 72% 29.99 in 10.0 mi NNW 4.6 mph - N/A   Partly Cloudy
8:55 PM 62.6 °F 53.6 °F 72% 30.00 in 10.0 mi North 10.4 mph - N/A   Mostly Cloudy
9:15 PM 62.6 °F 53.6 °F 72% 30.01 in 10.0 mi North 9.2 mph - N/A   Overcast
9:35 PM 60.8 °F 50.0 °F 68% 30.02 in 10.0 mi North 9.2 mph - N/A   Overcast
9:55 PM 59.0 °F 50.0 °F 72% 30.02 in 10.0 mi North 4.6 mph - N/A   Scattered Clouds
10:15 PM 57.2 °F 51.8 °F 82% 30.03 in 10.0 mi Calm Calm - N/A   Clear
10:35 PM 55.4 °F 50.0 °F 82% 30.04 in 10.0 mi Calm Calm - N/A   Clear
10:55 PM 55.4 °F 51.8 °F 88% 30.04 in 10.0 mi Calm Calm - N/A   Clear
11:15 PM 53.6 °F 51.8 °F 94% 30.05 in 10.0 mi Calm Calm - N/A   Clear
11:35 PM 51.8 °F 51.8 °F 100% 30.05 in 10.0 mi Calm Calm - N/A   Clear
11:55 PM 51.8 °F 50.0 °F 94% 30.04 in 10.0 mi Calm Calm - N/A   Clear